FW6456 Weather Reports


Display with metric or nautical units.
time (UTC)temp
F
wind
direction
speed
MPH
gust
MPH
rain 1hr
in
rain 24hr
in
rain mn
in
humidity
%
barometer
mb
20260505102125 58 58 0.0 0.0 0.00 0.00 0.00 84 3401.8
20260505101624 58 58 0.0 0.0 0.00 0.00 0.00 84 3401.6
20260505101119 59 58 0.0 0.0 0.00 0.00 0.00 84 3401.7
20260505100616 59 58 0.0 0.0 0.00 0.00 0.00 83 3401.9
20260505100113 59 58 0.0 0.0 0.00 0.00 0.00 84 3401.8
20260505095609 58 58 0.0 0.0 0.00 0.00 0.00 84 3401.7
20260505095106 59 58 0.0 0.0 0.00 0.00 0.00 84 3401.7
20260505094602 58 58 0.0 0.0 0.00 0.00 0.00 84 3401.9
20260505094058 58 58 0.0 0.0 0.00 0.00 0.00 84 3401.9
20260505093554 58 51 0.0 0.0 0.00 0.00 0.00 84 3401.9
20260505093052 59 51 0.0 0.0 0.00 0.00 0.00 84 3401.7
20260505092549 59 51 0.0 0.0 0.00 0.00 0.00 83 3401.8
20260505092048 59 51 0.0 0.0 0.00 0.00 0.00 83 3401.8
20260505091544 59 51 0.0 0.0 0.00 0.00 0.00 83 3401.6
20260505091043 59 51 0.0 0.0 0.00 0.00 0.00 83 3401.7
20260505090540 59 51 0.0 0.0 0.00 0.00 0.00 82 3401.9
20260505090038 59 51 0.0 0.0 0.00 0.00 0.00 82 3401.7
20260505085536 59 51 0.0 0.0 0.00 0.00 0.00 82 3401.8
20260505085034 59 51 0.0 0.0 0.00 0.00 0.00 81 3402.0
20260505084531 59 51 0.0 0.0 0.00 0.00 0.00 81 3401.8
20260505084029 60 51 0.0 0.0 0.00 0.00 0.00 81 3401.7
20260505083526 60 51 0.0 0.0 0.00 0.00 0.00 80 3401.7
20260505083023 60 51 0.0 0.0 0.00 0.00 0.00 79 3401.5
20260505082518 60 51 0.0 0.0 0.00 0.00 0.00 78 3401.7
20260505082015 61 51 0.0 0.0 0.00 0.00 0.00 78 3401.5
20260505081512 61 51 0.0 0.0 0.00 0.00 0.00 77 3401.5
20260505081009 61 49 0.0 0.0 0.00 0.00 0.00 77 3401.7
20260505080505 61 49 0.0 2.0 0.00 0.00 0.00 77 3401.5
20260505080001 61 67 0.0 0.0 0.00 0.00 0.00 77 3401.6
20260505075458 62 125 0.0 0.0 0.00 0.00 0.00 76 3401.4
20260505074955 62 126 0.0 0.0 0.00 0.00 0.00 76 3401.5
20260505074452 62 66 0.0 0.0 0.00 0.00 0.00 76 3401.7
20260505073949 62 65 0.0 0.0 0.00 0.00 0.00 76 3401.4
20260505073447 62 120 0.0 0.0 0.00 0.00 0.00 75 3401.4
20260505072944 62 107 0.0 0.0 0.00 0.00 0.00 75 3401.5
20260505072440 62 108 0.0 0.0 0.00 0.00 0.00 75 3401.3
20260505071936 62 107 0.0 0.0 0.00 0.00 0.00 74 3401.3
20260505071432 63 107 0.0 0.0 0.00 0.00 0.00 74 3401.3
20260505070931 63 106 0.0 0.0 0.00 0.00 0.00 73 3401.4
20260505070427 63 70 0.0 0.0 0.00 0.00 0.00 73 3401.5
20260505065922 63 65 0.0 0.0 0.00 0.00 0.00 73 3401.6
20260505065419 63 91 0.0 0.0 0.00 0.00 0.00 74 3401.3
20260505064916 63 100 0.0 0.0 0.00 0.00 0.00 73 3401.2
20260505064413 63 129 0.0 0.0 0.00 0.00 0.00 73 3401.3
20260505063912 63 111 0.0 0.0 0.00 0.00 0.00 72 3401.3
20260505063407 64 103 0.0 0.0 0.00 0.00 0.00 72 3401.0
20260505062904 64 68 0.0 0.0 0.00 0.00 0.00 72 3401.3
20260505062401 64 83 0.0 0.0 0.00 0.00 0.00 72 3401.1
20260505061858 63 123 1.0 2.0 0.00 0.00 0.00 72 3401.2
20260505061356 64 117 0.0 0.0 0.00 0.00 0.00 73 3401.4
20260505060854 64 111 0.0 0.0 0.00 0.00 0.00 72 3401.2
20260505060350 64 143 0.0 0.0 0.00 0.00 0.00 72 3401.4
20260505055846 64 141 0.0 2.0 0.00 0.00 0.00 71 3401.4
20260505055342 64 148 0.0 2.0 0.00 0.00 0.00 71 3401.4
20260505054840 64 146 0.0 0.0 0.00 0.00 0.00 71 3401.4
20260505054337 64 147 0.0 0.0 0.00 0.00 0.00 71 3401.7
20260505053835 64 146 0.0 0.0 0.00 0.00 0.00 71 3401.6
20260505053332 64 160 1.0 2.0 0.00 0.00 0.00 72 3401.6
20260505052828 64 163 0.0 0.0 0.00 0.00 0.00 71 3401.5
20260505052325 64 164 0.0 0.0 0.00 0.00 0.00 72 3401.5
20260505051823 64 164 1.0 3.0 0.00 0.00 0.00 70 3401.2
20260505051320 64 164 0.0 0.0 0.00 0.00 0.00 70 3401.5
20260505050818 64 163 0.0 2.0 0.00 0.00 0.00 70 3401.3
20260505050317 64 160 0.0 0.0 0.00 0.00 0.00 72 3401.5
20260505041746 65 159 0.0 0.0 0.00 0.00 0.00 70 3401.5
20260505041243 65 159 0.0 0.0 0.00 0.00 0.00 69 3401.5
20260505040741 65 159 0.0 0.0 0.00 0.00 0.00 68 3401.5
20260505040238 65 159 0.0 0.0 0.00 0.00 0.00 68 3401.2
20260505035735 66 159 0.0 0.0 0.00 0.00 0.00 68 3401.6
20260505035230 66 159 0.0 0.0 0.00 0.00 0.00 67 3401.4
20260505034728 66 159 0.0 0.0 0.00 0.00 0.00 66 3401.4
20260505034224 66 159 0.0 0.0 0.00 0.00 0.00 66 3401.5
20260505033721 66 159 0.0 0.0 0.00 0.00 0.00 66 3401.5
20260505033219 67 160 0.0 0.0 0.00 0.00 0.00 65 3401.1
20260505032717 67 119 1.0 2.0 0.00 0.00 0.00 65 3401.4
20260505032212 67 90 0.0 0.0 0.00 0.00 0.00 65 3401.4
20260505031710 67 89 0.0 0.0 0.00 0.00 0.00 64 3401.2
20260505031206 67 84 0.0 0.0 0.00 0.00 0.00 64 3401.4
20260505030703 68 84 0.0 0.0 0.00 0.00 0.00 64 3401.3
20260505030159 67 132 0.0 0.0 0.00 0.00 0.00 64 3401.2
20260505025655 68 134 0.0 0.0 0.00 0.00 0.00 64 3401.2
20260505025154 68 131 0.0 0.0 0.00 0.00 0.00 63 3400.9
20260505024651 68 116 0.0 0.0 0.00 0.00 0.00 63 3401.1
20260505024148 68 116 2.0 2.0 0.00 0.00 0.00 62 3400.8
20260505023646 68 131 3.0 3.0 0.00 0.00 0.00 62 3400.8
20260505023143 68 101 0.0 0.0 0.00 0.00 0.00 63 3400.8
20260505022640 68 134 0.0 0.0 0.00 0.00 0.00 63 3400.7
20260505022137 68 135 0.0 0.0 0.00 0.00 0.00 63 3400.4
20260505021634 68 279 0.0 0.0 0.00 0.00 0.00 63 3400.5
20260505021130 68 279 0.0 0.0 0.00 0.00 0.00 63 3400.5
20260505020626 69 308 0.0 0.0 0.00 0.00 0.00 63 3400.1
20260505020122 69 308 0.0 0.0 0.00 0.00 0.00 62 3400.1
20260505015619 69 75 0.0 0.0 0.00 0.00 0.00 63 3400.3
20260505015116 69 75 0.0 0.0 0.00 0.00 0.00 62 3400.3
20260505014613 69 105 0.0 0.0 0.00 0.00 0.00 62 3400.0
20260505014110 69 106 0.0 0.0 0.00 0.00 0.00 61 3400.1
20260505013607 69 105 0.0 0.0 0.00 0.00 0.00 61 3400.1
20260505013104 70 106 0.0 0.0 0.00 0.00 0.00 60 3400.0
20260505012602 70 106 0.0 0.0 0.00 0.00 0.00 59 3399.9
20260505012059 70 106 0.0 0.0 0.00 0.00 0.00 59 3399.9
20260505011554 71 106 0.0 2.0 0.00 0.00 0.00 59 3400.0
20260505011052 71 106 0.0 0.0 0.00 0.00 0.00 59 3399.8
20260505010547 71 106 0.0 0.0 0.00 0.00 0.00 57 3399.8
20260505010044 72 106 0.0 0.0 0.00 0.00 0.00 56 3399.9
20260505005540 73 106 0.0 0.0 0.00 0.00 0.00 54 3399.8
20260505005038 73 105 0.0 0.0 0.00 0.00 0.00 52 3399.9
20260505004535 73 103 0.0 0.0 0.00 0.00 0.00 52 3400.0
20260505004032 74 131 0.0 0.0 0.00 0.00 0.00 51 3400.0
20260505003529 74 110 1.0 2.0 0.00 0.00 0.00 51 3400.1
20260505003026 75 92 0.0 0.0 0.00 0.00 0.00 51 3400.0
20260505002521 75 95 1.0 2.0 0.00 0.00 0.00 49 3400.2
20260505002020 75 123 0.0 2.0 0.00 0.00 0.00 48 3400.3
20260505001517 76 179 4.0 7.0 0.00 0.00 0.00 47 3400.2
20260505001014 76 128 0.0 2.0 0.00 0.00 0.00 49 3400.3
20260505000512 76 121 0.0 0.0 0.00 0.00 0.00 47 3400.4
20260505000009 76 131 1.0 2.0 0.00 0.00 0.00 47 3400.2
20260504235506 77 79 1.0 2.0 0.00 0.00 0.00 47 3400.4
20260504235002 77 156 1.0 2.0 0.00 0.00 0.00 47 3400.4
20260504234459 77 118 0.0 0.0 0.00 0.00 0.00 46 3400.3
20260504233956 78 125 1.0 2.0 0.00 0.00 0.00 45 3400.6
20260504233451 78 183 5.0 5.0 0.00 0.00 0.00 45 3400.6
20260504232949 78 155 1.0 3.0 0.00 0.00 0.00 47 3400.8
20260504232446 78 260 3.0 5.0 0.00 0.00 0.00 45 3400.7
20260504231943 78 126 2.0 2.0 0.00 0.00 0.00 45 3400.9
20260504231439 78 220 7.0 10.0 0.00 0.00 0.00 45 3400.9
20260504230935 79 186 5.0 7.0 0.00 0.00 0.00 45 3401.0
20260504230432 80 170 4.0 7.0 0.00 0.00 0.00 45 3401.2
20260504225932 80 102 2.0 2.0 0.00 0.00 0.00 44 3401.2
20260504225428 80 98 2.0 3.0 0.00 0.00 0.00 44 3401.1
20260504224925 80 246 1.0 2.0 0.00 0.00 0.00 44 3401.3
20260504224421 81 146 2.0 3.0 0.00 0.00 0.00 43 3401.2
20260504223919 81 211 5.0 8.0 0.00 0.00 0.00 42 3401.3
20260504223414 81 286 1.0 3.0 0.00 0.00 0.00 43 3401.3
20260504222910 81 203 6.0 10.0 0.00 0.00 0.00 42 3401.4
20260504222407 81 256 12.0 15.0 0.00 0.00 0.00 42 3401.4
20260504221906 81 109 1.0 2.0 0.00 0.00 0.00 44 3401.4
20260504221402 81 134 4.0 7.0 0.00 0.00 0.00 42 3401.3
20260504220859 82 214 7.0 8.0 0.00 0.00 0.00 42 3401.3
20260504220356 82 246 4.0 5.0 0.00 0.00 0.00 42 3401.2
20260504215853 82 25 2.0 3.0 0.00 0.00 0.00 42 3401.5
20260504215349 82 286 3.0 5.0 0.00 0.00 0.00 42 3401.3
20260504214846 81 290 7.0 10.0 0.00 0.00 0.00 44 3401.3
20260504214343 81 150 1.0 2.0 0.00 0.00 0.00 44 3401.2
20260504213840 80 186 7.0 10.0 0.00 0.00 0.00 45 3401.2
20260504213335 80 75 2.0 2.0 0.00 0.00 0.00 46 3400.9
20260504212833 80 138 4.0 5.0 0.00 0.00 0.00 44 3401.2
20260504212329 80 76 3.0 5.0 0.00 0.00 0.00 44 3401.2
20260504211827 80 123 1.0 2.0 0.00 0.00 0.00 44 3401.2
20260504211322 81 204 4.0 8.0 0.00 0.00 0.00 45 3401.1
20260504210820 81 84 2.0 3.0 0.00 0.00 0.00 44 3401.0
20260504210317 81 228 3.0 5.0 0.00 0.00 0.00 44 3401.2
20260504205814 82 238 7.0 11.0 0.00 0.00 0.00 43 3401.1
20260504205312 82 273 1.0 3.0 0.00 0.00 0.00 45 3401.0
20260504204810 81 105 0.0 0.0 0.00 0.00 0.00 44 3400.8
20260504204308 81 74 2.0 3.0 0.00 0.00 0.00 45 3401.1
20260504203807 80 147 2.0 3.0 0.00 0.00 0.00 45 3401.4
20260504203304 81 180 7.0 10.0 0.00 0.00 0.00 44 3401.3
20260504202758 81 140 3.0 3.0 0.00 0.00 0.00 44 3401.1
20260504202256 81 156 7.0 13.0 0.00 0.00 0.00 46 3401.1
20260504201753 81 223 5.0 7.0 0.00 0.00 0.00 46 3401.1
20260504201250 82 162 3.0 3.0 0.00 0.00 0.00 50 3401.2
20260504200748 81 151 1.0 2.0 0.00 0.00 0.00 47 3401.3
20260504200243 81 117 0.0 2.0 0.00 0.00 0.00 47 3401.3
20260504195740 81 109 2.0 5.0 0.00 0.00 0.00 49 3401.1
20260504195236 81 144 3.0 5.0 0.00 0.00 0.00 48 3401.0
20260504194734 80 186 6.0 8.0 0.00 0.00 0.00 49 3401.1
20260504194229 81 181 2.0 3.0 0.00 0.00 0.00 47 3401.4
20260504193726 82 162 3.0 5.0 0.00 0.00 0.00 47 3401.6
20260504193224 82 137 1.0 2.0 0.00 0.00 0.00 46 3401.5
20260504192722 82 263 6.0 10.0 0.00 0.00 0.00 46 3401.3
20260504192219 81 142 0.0 0.0 0.00 0.00 0.00 49 3401.6
20260504191718 80 105 2.0 3.0 0.00 0.00 0.00 50 3401.9
20260504191215 80 12 1.0 3.0 0.00 0.00 0.00 49 3401.8
20260504190710 80 83 0.0 2.0 0.00 0.00 0.00 48 3402.0
20260504190206 80 173 5.0 13.0 0.00 0.00 0.00 47 3402.1
20260504185703 80 80 3.0 5.0 0.00 0.00 0.00 48 3402.1
20260504185159 80 125 3.0 5.0 0.00 0.00 0.00 49 3402.2
20260504184655 80 222 5.0 8.0 0.00 0.00 0.00 48 3402.2
20260504184150 80 220 7.0 8.0 0.00 0.00 0.00 50 3402.1
20260504183648 80 52 2.0 3.0 0.00 0.00 0.00 49 3402.1
20260504183145 79 42 1.0 2.0 0.00 0.00 0.00 50 3402.2
20260504182643 80 95 1.0 2.0 0.00 0.00 0.00 50 3402.3
20260504182140 80 227 6.0 10.0 0.00 0.00 0.00 50 3402.7
20260504181637 81 295 7.0 13.0 0.00 0.00 0.00 48 3402.4
20260504181135 81 339 3.0 8.0 0.00 0.00 0.00 52 3402.3
20260504180634 81 292 2.0 3.0 0.00 0.00 0.00 51 3402.4
20260504180132 80 245 2.0 3.0 0.00 0.00 0.00 52 3402.7
20260504175629 80 137 2.0 3.0 0.00 0.00 0.00 52 3402.7
20260504175125 80 319 3.0 3.0 0.00 0.00 0.00 52 3402.9
20260504174624 79 17 6.0 8.0 0.00 0.00 0.00 53 3402.9
20260504174120 78 187 5.0 8.0 0.00 0.00 0.00 55 3402.9
20260504173618 78 90 1.0 2.0 0.00 0.00 0.00 53 3403.0
20260504173115 78 138 3.0 3.0 0.00 0.00 0.00 56 3403.1
20260504172611 78 137 1.0 2.0 0.00 0.00 0.00 53 3403.3
20260504172108 77 152 2.0 3.0 0.00 0.00 0.00 54 3403.2
20260504171604 77 109 3.0 5.0 0.00 0.00 0.00 55 3403.2
20260504171102 76 29 1.0 2.0 0.00 0.00 0.00 55 3403.1
20260504170557 76 130 3.0 5.0 0.00 0.00 0.00 56 3403.3
20260504150941 67 262 0.0 0.0 0.00 0.00 0.00 73 3404.6
20260504150438 67 114 1.0 2.0 0.00 0.00 0.00 71 3404.4
20260504140904 61 85 0.0 2.0 0.00 0.00 0.00 76 3405.2
20260504140400 61 86 0.0 0.0 0.00 0.00 0.00 76 3404.8
20260504130325 57 94 0.0 0.0 0.00 0.00 0.00 78 3405.8
20260504120248 54 111 0.0 0.0 0.00 0.00 0.00 84 3406.1
20260504110716 53 83 0.0 0.0 0.00 0.00 0.00 84 3405.2
20260504110212 53 83 1.0 2.0 0.00 0.00 0.00 84 3405.0